Location: Elaina
(34.1445°N, 106.7742°W)
Time: 06:46:01
(UTC+00:00)

Cosmos 1937 Rocket - Pass Details

Date: 11 December 2025
Orbit: 743 x 775 km, 74.0° (Epoch: 13 January)

Event Time Altitude Azimuth Distance (km) Brightness Sun altitude
Exits shadow 12:32:05 26° 323° (NW) 1,429 4.5 -18.3°
Maximum altitude 12:34:45 55° 257° (WSW) 893 3.5 -17.8°
Drops below altitude 10° 12:39:44 10° 180° (S) 2,258 6.1 -16.8°
Sets 12:42:07 0° 176° (S) 3,183 7.0 -16.3°
